Theta_e
315 315 315 315 315 315 316 316 317 318 318 319 319 319 318 317 317 316 312 310 316 323 321 321 317 312 313 310 312 313 303 301 303 304 306 311 310 315 318 316 317 317 317 320 323
314 314 314 314 314 314 315 316 317 317 318 318 319 319 317 317 314 315 317 319 318 322 319 313 311 312 308 308 307 305 301 302 308 309 308 311 311 312 313 314 314 314 318 319 320
314 314 313 313 313 313 314 315 316 317 317 317 318 318 318 316 313 311 323 321 320 321 315 313 311 310 306 309 308 304 300 304 306 308 311 309 309 313 311 310 313 313 314 317 318
314 313 313 313 313 313 314 315 315 316 316 317 318 318 317 315 302 314 326 325 324 319 315 311 310 306 304 303 307 302 305 305 306 307 308 306 309 308 310 312 316 316 317 317 318
314 313 312 312 312 313 313 314 315 315 315 316 318 318 314 311 310 320 327 324 320 315 311 309 306 305 302 304 305 302 304 306 308 307 307 307 305 306 307 312 315 317 317 316 317
314 314 313 312 312 312 313 313 314 314 315 317 319 317 313 303 316 319 316 315 314 313 310 310 307 308 304 303 302 304 303 303 305 305 306 304 305 306 307 311 311 313 314 316 317
314 313 313 311 312 312 313 314 313 313 315 318 319 315 308 306 315 316 316 315 315 312 308 310 310 306 306 302 306 305 301 303 303 304 303 304 300 301 308 310 309 310 311 313 316
314 313 312 311 312 313 313 314 313 314 317 319 319 313 303 315 317 312 314 313 315 315 312 313 311 307 304 305 302 299 299 294 301 303 304 303 295 303 307 307 308 309 311 312 314
313 312 312 311 311 313 313 313 313 315 318 318 314 312 304 316 310 312 313 308 310 310 310 310 309 304 303 297 295 297 291 294 296 303 302 302 298 304 308 307 306 308 310 312 313
312 311 311 311 311 312 312 312 316 315 318 317 315 306 310 306 310 310 312 310 307 308 306 305 303 299 299 297 288 291 292 294 294 299 300 299 299 303 306 306 306 307 310 312 313
312 311 310 311 311 312 311 315 307 310 313 304 304 305 305 309 311 308 311 308 307 304 298 303 298 294 297 298 297 296 294 293 296 299 298 298 298 300 304 304 304 306 308 311 312
311 310 310 310 311 311 311 308 307 307 300 307 307 306 308 308 302 305 311 302 301 297 301 298 294 300 301 300 297 296 294 292 295 298 297 297 296 301 303 303 304 305 306 310 312
310 309 310 310 311 311 313 310 313 312 300 303 306 304 305 307 302 303 306 303 299 297 298 295 298 302 299 297 294 294 293 294 293 296 299 297 294 297 302 303 304 306 307 308 311
309 309 309 309 309 313 310 311 313 312 297 300 302 304 305 305 300 306 307 303 299 296 299 298 301 299 297 295 296 291 297 297 296 294 289 298 286 295 299 301 303 304 306 306 309
309 309 309 308 312 311 308 311 312 311 290 300 301 309 305 301 301 302 309 304 298 299 299 296 297 297 295 296 298 294 299 295 293 290 290 291 290 294 299 296 299 303 305 307 309
308 308 308 312 314 310 311 313 311 298 289 297 301 300 299 300 299 302 303 307 306 301 301 299 304 301 299 300 299 299 296 296 296 294 286 291 289 291 294 297 300 303 304 306 309
307 306 307 313 306 310 311 310 296 292 300 295 294 296 294 295 298 299 299 298 296 292 293 297 297 301 302 297 300 298 294 285 284 284 282 292 290 292 298 301 302 303 305 306 308
305 305 314 316 311 311 310 302 291 294 292 295 294 295 293 296 295 295 296 295 300 297 293 289 289 297 301 298 296 295 294 287 280 281 284 292 286 292 301 303 303 305 306 306 307
304 316 316 311 312 313 305 293 291 291 293 292 294 291 291 294 293 295 295 295 298 299 290 289 289 299 299 300 298 294 291 296 289 289 285 288 293 299 301 301 303 304 306 305 307
305 311 313 311 313 310 300 292 293 296 296 295 289 292 289 291 292 293 293 298 297 299 300 294 286 296 298 300 299 296 297 289 291 280 279 285 288 289 297 299 301 303 305 306 307
307 306 312 313 312 304 297 294 295 299 298 294 292 291 293 292 293 291 291 297 299 298 299 295 290 290 296 294 293 294 292 293 292 290 282 281 285 298 299 300 301 302 304 306 306
307 301 312 312 301 299 296 297 297 298 301 298 297 295 293 293 292 291 291 295 299 299 292 295 290 286 289 297 299 297 294 293 287 285 288 286 287 300 300 302 303 303 305 307 307
304 304 312 309 293 295 299 298 299 298 298 297 296 298 297 293 289 294 295 299 300 296 293 294 289 283 286 293 298 292 295 295 294 293 286 283 286 300 301 301 302 302 304 307 311
304 298 303 304 302 298 296 297 296 300 299 299 299 299 296 293 295 292 293 297 299 298 301 297 287 285 281 286 291 289 291 294 291 286 287 288 290 295 298 300 302 304 305 306 308
305 299 301 294 296 299 299 297 295 294 300 301 298 297 294 288 290 290 294 295 297 300 298 294 286 288 289 291 291 291 291 292 290 290 285 289 290 294 297 299 301 304 306 306 307
302 299 300 298 301 299 298 297 294 295 296 296 296 297 297 291 294 290 293 293 292 296 295 294 286 289 286 290 290 288 291 288 287 290 291 291 289 297 299 301 300 302 304 305 306
309 308 301 298 299 296 296 295 295 297 298 300 299 298 296 298 300 300 301 301 299 294 293 289 286 286 282 289 289 285 285 286 287 289 288 285 291 296 296 296 297 299 302 304 308
Wind_Speed
19 18 18 17 17 17 18 17 17 16 16 17 16 15 15 15 17 11 4 4 5 9 10 12 11 11 12 14 17 18 16 18 26 26 24 23 27 24 24 16 7 5 10 14 4
21 19 18 17 17 16 17 17 17 17 18 19 18 14 12 13 14 16 6 5 2 6 11 9 10 11 12 13 13 18 18 27 22 23 22 23 24 23 23 27 12 10 13 13 16
22 21 21 20 19 17 16 16 16 16 16 17 16 15 14 13 13 8 10 7 4 7 12 13 11 12 16 16 18 20 24 23 25 27 25 24 26 24 24 23 16 15 15 21 16
26 25 24 22 21 20 18 17 16 15 15 15 13 12 11 11 5 10 12 8 7 10 14 7 9 12 14 17 18 24 27 25 25 25 25 27 25 25 25 23 22 18 14 16 18
24 26 27 25 23 21 20 19 17 17 16 16 11 9 10 9 3 11 11 10 9 12 11 9 11 12 14 15 16 21 21 22 22 24 25 25 27 25 28 27 22 20 20 19 20
22 24 25 26 25 24 21 18 17 17 17 14 10 8 9 15 6 16 7 6 12 8 11 11 10 13 12 15 17 18 21 23 23 24 21 23 24 25 27 24 25 24 22 19 20
23 23 24 25 25 25 22 19 16 16 15 11 8 8 14 16 2 5 7 7 4 8 9 11 12 10 13 18 16 19 19 19 20 20 24 22 27 29 24 25 26 25 23 22 23
24 24 25 26 25 23 21 18 18 18 15 8 7 9 8 7 2 8 12 8 8 9 10 9 11 14 16 16 20 22 23 23 20 25 25 26 27 26 26 26 27 26 23 23 22
24 24 25 27 26 24 21 17 17 14 11 7 8 9 12 5 10 3 7 10 11 12 13 11 10 15 17 17 18 19 21 27 27 26 27 26 30 25 18 21 23 23 24 24 24
25 25 25 25 26 22 20 16 8 6 9 9 10 9 9 9 4 1 9 11 9 13 16 16 15 16 16 15 17 22 24 25 26 24 27 19 23 16 16 21 20 18 20 20 23
27 26 26 25 25 20 15 5 4 6 10 16 16 17 20 14 12 8 13 13 12 13 17 14 15 16 21 22 26 27 29 30 26 26 30 22 22 25 22 18 21 20 20 25 23
28 28 27 26 23 22 9 11 10 9 16 20 19 14 12 8 12 10 12 13 14 15 16 17 18 20 23 22 18 23 30 29 27 27 27 28 26 25 24 17 19 20 23 22 25
28 29 28 26 24 10 8 13 12 14 9 13 1 6 5 3 10 12 13 11 14 18 19 19 21 23 23 22 24 23 24 25 24 27 29 24 26 22 28 20 20 22 22 27 25
29 29 28 29 8 12 11 16 13 10 7 8 7 3 6 5 14 5 11 11 15 18 20 20 21 24 23 24 18 23 20 20 23 17 18 22 18 21 19 21 23 20 20 23 26
28 28 27 13 12 10 18 14 12 6 5 4 6 5 5 10 17 15 6 7 17 20 19 21 22 22 22 23 21 23 14 13 23 13 13 32 17 16 21 21 22 21 20 21 25
29 28 25 3 9 13 14 14 8 7 2 5 8 20 21 23 24 21 10 8 15 20 18 22 24 22 21 21 18 15 11 17 25 23 17 22 20 17 20 21 20 18 18 22 24
31 28 18 10 12 14 13 10 6 6 23 14 26 25 23 23 10 13 12 15 10 12 15 21 22 24 14 16 15 17 16 8 10 8 13 24 20 15 14 23 25 23 22 22 22
34 30 8 9 13 12 10 10 9 20 18 23 22 23 19 10 15 19 17 15 15 9 13 13 14 19 7 9 16 16 13 7 9 12 20 24 19 17 18 5 7 21 27 21 18
31 5 5 9 10 8 11 8 10 16 18 17 18 13 15 22 18 14 16 16 6 10 7 13 11 30 24 22 18 18 19 19 20 21 21 16 27 24 17 17 21 20 22 19 14
11 8 3 12 9 9 5 5 12 13 13 13 12 10 20 18 14 14 13 12 13 11 12 7 17 15 22 19 16 17 16 15 10 12 19 16 20 10 9 14 21 24 22 18 12
5 7 6 15 8 9 6 9 10 11 10 9 16 17 16 16 17 18 8 17 10 12 13 14 8 13 20 16 19 15 14 18 15 12 15 19 10 2 9 14 17 22 24 28 15
7 7 8 12 6 10 9 10 3 11 11 8 8 12 13 19 16 20 15 13 1 11 12 11 6 14 24 25 26 23 24 20 8 5 5 7 17 10 16 9 14 15 24 32 20
10 11 5 6 7 8 12 13 10 10 10 8 9 12 15 15 8 13 19 17 13 5 5 3 6 10 14 10 9 3 8 12 12 9 15 12 14 14 23 19 4 14 22 24 20
7 7 8 11 11 13 14 14 14 11 9 9 14 9 9 8 14 13 27 6 5 11 23 9 4 9 13 21 22 25 26 22 11 6 15 19 27 22 21 18 10 14 13 23 18
5 7 6 8 11 14 13 14 16 15 10 14 9 15 14 7 17 18 20 22 19 22 5 4 7 13 18 25 28 27 26 26 24 18 15 14 21 21 17 18 13 20 19 19 15
6 6 7 14 13 17 15 9 14 18 18 15 14 17 19 16 17 24 21 19 13 9 5 6 6 12 21 24 25 24 19 6 11 9 7 13 18 12 16 14 13 19 22 17 14
7 8 6 9 13 15 14 18 17 17 12 19 17 15 18 21 20 24 23 24 18 11 11 3 4 4 18 18 22 14 4 5 6 9 13 16 21 14 15 15 14 18 22 23 19
Wind_Direction
360 356 353 350 346 340 334 332 330 327 322 317 313 312 310 309 304 252 295 48 0 346 321 283 253 248 237 249 248 257 245 251 250 255 269 275 279 278 285 285 284 263 258 271 251
357 354 352 348 344 340 333 328 327 326 325 323 319 315 309 310 286 263 124 125 22 327 287 295 274 230 231 237 230 234 246 246 255 269 275 277 275 278 275 272 237 262 253 283 268
353 351 348 346 342 338 331 325 322 321 319 315 308 307 309 310 273 109 166 151 205 269 276 284 278 273 272 250 242 236 247 256 261 272 282 291 294 293 287 282 264 224 244 239 244
348 348 345 343 340 336 331 325 321 319 315 309 298 295 301 274 339 122 158 162 219 273 278 274 253 252 253 258 253 247 256 256 268 272 273 277 285 285 287 283 293 307 282 274 268
343 343 341 339 338 334 329 324 321 319 317 312 304 304 292 256 245 138 158 180 239 258 273 303 295 289 283 291 289 274 274 272 264 262 269 272 270 274 276 283 289 286 289 286 286
342 339 338 336 334 331 326 321 317 315 316 309 300 308 264 280 79 145 211 209 237 252 283 294 290 313 306 279 278 285 289 288 291 289 277 275 269 261 260 273 280 282 284 280 279
340 337 336 335 332 327 323 320 314 313 312 299 288 286 283 261 100 285 225 256 298 293 288 293 309 296 299 296 282 280 286 278 271 266 264 267 264 262 266 258 255 258 263 259 269
338 337 336 334 330 324 318 313 309 308 301 281 279 284 264 327 1 290 259 260 235 244 250 271 280 274 277 275 279 272 269 270 267 262 254 244 253 250 249 249 252 254 255 262 253
336 336 335 333 328 324 317 307 298 287 268 265 257 212 269 161 228 284 315 289 312 305 275 274 265 276 282 278 276 263 266 266 269 260 258 246 251 238 261 258 247 244 241 239 245
336 336 334 331 325 323 316 290 278 285 227 229 249 263 260 253 125 266 291 269 266 279 284 266 249 253 250 253 262 272 273 273 272 271 270 283 296 290 250 262 277 267 266 255 243
334 335 334 329 322 324 324 239 304 190 244 289 285 265 293 293 260 258 259 258 276 273 267 260 269 268 290 292 290 289 286 282 280 285 289 286 270 277 282 275 284 276 265 264 237
332 335 333 328 323 318 290 13 3 289 303 291 266 266 278 289 288 266 244 269 274 270 290 285 266 267 276 290 292 282 286 281 282 278 277 281 276 271 266 259 265 276 282 276 267
332 334 333 327 320 289 295 10 335 335 290 304 106 278 1 254 261 277 294 271 281 287 287 288 292 290 288 286 285 280 257 268 272 287 288 295 279 279 285 266 259 248 258 274 278
332 333 333 326 299 321 356 339 329 359 274 140 175 119 252 234 273 226 270 255 281 289 288 284 289 283 286 288 288 288 290 317 315 298 277 250 270 273 262 263 244 243 228 255 265
333 333 330 330 314 327 340 325 339 263 320 102 92 116 258 248 307 306 138 228 270 284 290 286 295 286 281 283 284 267 302 311 290 293 270 268 251 276 254 262 265 255 255 231 250
333 331 334 47 209 322 328 318 279 236 39 347 15 345 327 331 304 290 277 275 278 284 282 286 282 280 272 275 281 293 256 253 262 254 261 278 266 268 263 271 276 289 262 255 231
330 323 319 319 332 336 327 288 252 300 2 15 343 338 317 297 339 335 327 319 316 318 305 316 299 277 308 272 259 257 264 299 276 263 257 256 269 247 259 268 275 289 269 266 249
328 314 251 259 336 333 297 274 285 3 347 347 334 311 298 35 354 340 320 318 311 318 321 299 307 326 3 305 289 289 240 249 295 295 295 302 285 268 295 309 295 254 277 263 260
318 294 260 3 338 325 303 9 10 349 349 335 326 328 351 344 340 341 327 301 3 355 315 312 283 322 311 296 282 273 265 271 281 285 287 289 282 278 344 328 306 263 287 259 271
320 291 33 337 340 306 356 318 359 16 339 339 336 349 330 327 329 331 333 317 356 10 2 315 296 287 293 300 269 271 278 284 275 287 276 274 289 316 319 324 334 320 311 291 270
250 294 42 342 304 283 31 352 345 335 345 325 316 316 321 329 341 321 278 306 26 342 334 333 270 288 293 273 275 279 275 240 260 273 264 280 259 336 331 307 342 343 326 311 242
300 331 37 332 347 5 7 337 285 319 318 326 299 306 327 327 315 307 290 315 327 335 309 304 269 282 281 281 271 267 275 286 292 293 298 278 270 281 297 303 5 358 306 314 359
310 305 102 308 3 359 331 326 338 317 346 327 314 316 330 326 318 309 303 306 318 289 319 329 260 310 303 285 62 5 306 290 292 285 260 272 274 315 299 307 3 293 291 314 326
284 319 344 313 1 359 339 312 311 345 344 318 311 341 330 297 300 296 301 323 310 277 284 299 231 229 263 278 297 293 289 286 249 247 270 251 277 293 300 309 324 286 321 323 315
329 355 20 310 332 318 294 303 329 337 333 321 301 309 336 301 305 282 302 310 316 296 287 194 254 253 260 272 283 280 282 282 276 251 243 293 285 290 316 322 306 303 301 294 320
353 336 329 299 313 285 297 340 333 326 320 318 320 319 311 302 292 299 305 295 291 287 268 194 264 277 275 277 275 281 293 323 1 7 286 293 297 294 297 309 316 307 283 288 292
336 336 281 285 307 315 340 329 318 313 319 316 316 324 307 313 311 296 285 273 253 235 258 221 283 273 290 307 305 276 42 347 320 305 313 294 295 335 313 316 312 300 300 301 290